This is the latest recevied weather packets stored in our database for station/object T77NM. If no packets are shown the sender has not sent any weather packets the latest 10 day(s).
| Time | Temp. | Humidity | Pressure | Rain* | Wind** | Luminosity | Snow |
|---|---|---|---|---|---|---|---|
| 1778158801 | 19.44° C | 60% | 1012.9 hPa | 0 mm | - | 1028 W/m² | - |
| 1778142634 | 17.22° C | 49% | 1013.2 hPa | 0 mm | - | 784 W/m² | - |
| 1778139930 | 17.22° C | 56% | 1012.8 hPa | 0 mm | - | 455 W/m² | - |
| 1778139029 | 17.22° C | 58% | 1012.8 hPa | 0 mm | - | 698 W/m² | - |
| 1778129155 | 14.44° C | 71% | 1012.1 hPa | 0 mm | - | 32 W/m² | - |
| 1778121041 | 14.44° C | 75% | 1011.4 hPa | 0 mm | - | 0 W/m² | - |
| 1778120139 | 14.44° C | 75% | 1011.4 hPa | 0 mm | - | 0 W/m² | - |
| 1778117496 | 15° C | 75% | 1011.4 hPa | 0 mm | - | 0 W/m² | - |
| 1778108414 | 15° C | 73% | 1011.7 hPa | 0 mm | - | 0 W/m² | - |
| 1778100307 | 15.56° C | 73% | 1011.8 hPa | 0 mm | - | 0 W/m² | - |
| 1778097610 | 15.56° C | 74% | 1011.4 hPa | 0 mm | - | 0 W/m² | - |
| 1778094003 | 16.11° C | 74% | 1010.6 hPa | 0 mm | - | 0 W/m² | - |
| 1778088602 | 17.22° C | 70% | 1009.8 hPa | 0 mm | - | 25 W/m² | - |
| 1778083271 | 19.44° C | 62% | 1009.7 hPa | 0 mm | - | 345 W/m² | - |
| 1778082358 | 19.44° C | 62% | 1009.8 hPa | 0 mm | - | 603 W/m² | - |
| 1778081461 | 20° C | 60% | 1009.7 hPa | 0 mm | - | 494 W/m² | - |
| 1778067041 | 18.33° C | 66% | 1010.7 hPa | 0 mm | - | 612 W/m² | - |
| 1778063433 | 16.67° C | 72% | 1011 hPa | 0 mm | - | 445 W/m² | - |
| 1778061632 | 16.67° C | 72% | 1011 hPa | 0 mm | - | 415 W/m² | - |
| 1778060733 | 16.67° C | 73% | 1010.9 hPa | 0 mm | - | 554 W/m² | - |
| 1778054416 | 15° C | 77% | 1010.3 hPa | 0 mm | - | 461 W/m² | - |
| 1778053514 | 15° C | 78% | 1010.3 hPa | 0 mm | - | 406 W/m² | - |
| 1778052612 | 14.44° C | 79% | 1010.2 hPa | 0 mm | - | 385 W/m² | - |
| 1778050807 | 14.44° C | 80% | 1010.5 hPa | 0 mm | - | 290 W/m² | - |
| 1778047260 | 13.33° C | 81% | 1011.2 hPa | 0 mm | - | 128 W/m² | - |
* Rain latest hour (hover to see other rain measurements)
** Current wind speed in m/s (hover to see current wind gust speed)